Location: Waco, TX
(31.5480°N, 97.1670°W)
Time: 07:16:20
(UTC-05:00)

ISS - Pass Details

Date: 23 September 2022
Orbit: 414 x 417 km, 51.6° (Epoch: 01 October)

Event Time Altitude Azimuth Distance (km) Brightness Sun altitude
Rises 01:22:36 0° 315° (NW) 2,360 - -58.5°
Reaches altitude 10° 01:24:42 10° 315° (NW) 1,494 - -58.5°
Maximum altitude 01:28:03 88° 234° (SW) 420 - -58.5°
Drops below altitude 10° 01:31:23 10° 137° (SE) 1,484 - -58.5°
Sets 01:33:28 0° 137° (SE) 2,343 - -58.4°
